Wilmington, DE

4:09 PM EST on November 14, 2019 (GMT -0500)
New Castle County

Weather History for KILG - August, 2019

Change the Weather History Date:

Sunday, August 18, 2019

  Actual Average Record
Temperature  
Mean Temperature 81 °F 75 °F  
Max Temperature 90 °F 84 °F 96 °F (2002)
Min Temperature 72 °F 66 °F 51 °F (1941)
Degree Days  
Heating Degree Days 0 0  
Month to date heating degree days 0 0  
Since 1 June heating degree days 5 15  
Since 1 July heating degree days 0 0  
Cooling Degree Days 16 10  
Month to date cooling degree days 239 196  
Year to date cooling degree days 1101 873  
Since 1 June cooling degree days 969 794  
Growing Degree Days 30 (Base 50)    
Moisture  
Dew Point 74 °F    
Average Humidity 80    
Maximum Humidity 94    
Minimum Humidity 65    
Precipitation  
Precipitation 0.18 in 0.10 in 2.79 in (1946)
Month to date precipitation 2.07 1.98  
Year to date precipitation 35.53 27.49  
Snow  
Snow 0.00 in 0.00 in 0.00 in (1894)
Month to date snowfall 0.0 0.0  
Since 1 June snowfall 0.0 0.0  
Since 1 July snowfall 0.0 0.0  
Snow Depth 0.00 in    
Sea Level Pressure  
Sea Level Pressure 30.00 in    
Wind  
Wind Speed 4 mph (South)    
Max Wind Speed 18 mph    
Max Gust Speed 24 mph    
Visibility 10 miles    
Events Rain , Thunderstorm    
T = Trace of Precipitation, MM = Missing Value Source: NWS Daily Summary

Daily Weather History Graph

Daily Weather History Graph

Search for Another Location

Airport or City:

Astronomy

Aug. 18, 2019 Rise Set
Actual Time 6:17 AM EDT 7:54 PM EDT
Civil Twilight 5:48 AM EDT 8:23 PM EDT
Nautical Twilight 5:13 AM EDT 8:57 PM EDT
Astronomical Twilight 4:37 AM EDT 9:34 PM EDT
Moon 9:48 PM EDT (8/18) 8:59 AM EDT (8/18)
Length of Visible Light 14h 34m
Length of Day
13h 37m
Waning Gibbous, 91% of the Moon is Illuminated
Aug 18
Waning Gibbous
Aug 23
Last Quarter
Aug 30
New
Sep 5
First Quarter
Sep 14
Full

Hourly Weather History & Observations

Time (EDT) Temp. Heat Index Dew Point Humidity Pressure Visibility Wind Dir Wind Speed Gust Speed Precip Events Conditions
12:51 AM 78.1 °F - 75.9 °F 93% 29.97 in 10.0 mi South 4.6 mph - N/A   Clear
1:51 AM 78.1 °F - 75.0 °F 90% 29.98 in 10.0 mi South 3.5 mph - N/A   Clear
2:51 AM 77.0 °F - 75.0 °F 94% 29.98 in 10.0 mi South 3.5 mph - N/A   Clear
3:51 AM 77.0 °F - 73.9 °F 90% 29.98 in 10.0 mi Calm Calm - N/A   Clear
4:51 AM 75.9 °F - 73.0 °F 91% 29.98 in 10.0 mi Calm Calm - N/A   Clear
5:51 AM 75.9 °F - 73.9 °F 94% 29.99 in 10.0 mi Calm Calm - N/A   Clear
6:51 AM 75.9 °F - 73.9 °F 94% 30.01 in 10.0 mi Calm Calm - N/A   Mostly Cloudy
7:39 AM 77.0 °F - 75.0 °F 94% 30.02 in 10.0 mi SSW 3.5 mph - N/A   Mostly Cloudy
7:48 AM 77.0 °F - 75.2 °F 94% 30.03 in 10.0 mi South 3.5 mph - N/A   Overcast
7:51 AM 78.1 °F - 75.9 °F 93% 30.02 in 10.0 mi South 3.5 mph - N/A   Overcast
8:13 AM 79.0 °F - 77.0 °F 94% 30.02 in 10.0 mi South 4.6 mph - N/A   Scattered Clouds
8:51 AM 81.0 °F 87.9 °F 77.0 °F 88% 30.02 in 10.0 mi SSE 3.5 mph - N/A   Scattered Clouds
9:15 AM 81.0 °F 87.9 °F 77.0 °F 88% 30.02 in 10.0 mi SW 4.6 mph - N/A   Scattered Clouds
9:22 AM 82.0 °F 90.2 °F 77.0 °F 85% 30.01 in 10.0 mi Calm Calm - N/A   Partly Cloudy
9:51 AM 82.9 °F 91.8 °F 77.0 °F 82% 30.01 in 10.0 mi SSW 3.5 mph - N/A   Partly Cloudy
10:51 AM 86.0 °F 96.9 °F 77.0 °F 74% 30.02 in 10.0 mi Calm Calm - N/A   Clear
11:51 AM 88.0 °F 100.2 °F 77.0 °F 70% 30.01 in 10.0 mi SE 6.9 mph - N/A   Clear
12:51 PM 88.0 °F 98.5 °F 75.9 °F 67% 30.01 in 10.0 mi SSE 5.8 mph - N/A   Mostly Cloudy
1:21 PM 86.0 °F 96.0 °F 75.9 °F 72% 30.01 in 10.0 mi SSE 9.2 mph - 0.00 in Thunderstorm Thunderstorm
1:36 PM 84.9 °F 91.4 °F 73.0 °F 67% 30.01 in 10.0 mi SSE 9.2 mph - 0.00 in   Partly Cloudy
1:51 PM 84.0 °F 89.0 °F 71.1 °F 65% 30.01 in 10.0 mi SSE 10.4 mph - 0.00 in Thunderstorm Thunderstorm
2:51 PM 79.0 °F - 75.0 °F 88% 29.99 in 4.0 mi SSW 8.1 mph - 0.11 in Rain , Thunderstorm Light Rain
3:03 PM 80.1 °F 85.8 °F 77.0 °F 90% 29.99 in 7.0 mi South 9.2 mph - 0.01 in Rain , Thunderstorm Light Rain
3:16 PM 81.0 °F 87.9 °F 77.0 °F 88% 30.00 in 10.0 mi SSW 10.4 mph - 0.02 in Rain , Thunderstorm Light Thunderstorms and Rain
3:25 PM 79.0 °F - 75.9 °F 90% 30.01 in 9.0 mi SW 12.7 mph - 0.02 in Rain , Thunderstorm Light Thunderstorms and Rain
3:48 PM 73.4 °F - 68.0 °F 83% 30.00 in 5.0 mi West 8.1 mph - 0.07 in Rain , Thunderstorm Rain
3:51 PM 73.0 °F - 69.1 °F 87% 30.00 in 6.0 mi WNW 9.2 mph - 0.07 in Rain , Thunderstorm Light Rain
4:00 PM 72.0 °F - 69.1 °F 91% 29.99 in 10.0 mi NW 4.6 mph - 0.00 in Rain Light Rain
4:51 PM 75.9 °F - 70.0 °F 82% 29.99 in 10.0 mi Calm Calm - 0.00 in   Clear
5:51 PM 82.0 °F 87.4 °F 73.0 °F 74% 29.98 in 10.0 mi West 8.1 mph - N/A   Clear
6:51 PM 82.9 °F 90.2 °F 75.0 °F 77% 29.96 in 10.0 mi Calm Calm - N/A   Clear
7:51 PM 81.0 °F 86.2 °F 73.9 °F 79% 29.97 in 10.0 mi SE 4.6 mph - N/A   Clear
8:51 PM 80.1 °F 85.1 °F 75.0 °F 85% 30.00 in 10.0 mi SE 3.5 mph - N/A   Clear
9:51 PM 80.1 °F 84.2 °F 73.0 °F 79% 30.01 in 10.0 mi Calm Calm - N/A   Partly Cloudy
10:51 PM 78.1 °F - 73.0 °F 84% 30.00 in 10.0 mi ENE 5.8 mph - N/A   Clear
11:51 PM 78.1 °F - 71.1 °F 79% 29.98 in 10.0 mi ESE 4.6 mph - N/A   Clear